Dades meteomassalio
Diari Summary for Juny 21, 2017 Units:  Metric    English   Both
« Previous Day
Next Day »
Diari Semanal Mensual Anual Personalitzat
  Maxima: Minima: Mijana:
Temperatura: -17.8 °C -7.3 °C -2.1 °C
Rosada: -17.8 °C -10.9 °C -9.6 °C
Humitat: Humidity % 24 % 46 %
Velocitat del vent: 0 km/h 0 km/h 7.4 km/h
Racha vent: 0 km/h - -
Vent:- - SSE
Pressio: 0 hPa 34279.9 hPa -
Pluja: 0 mm    
Historical Graphs
 
 
Tabular Data for Juny 21, 2017
Time Temperature Dew Point Pressure Wind Wind Speed Wind Gust Humidity Rainfall Rate (Hourly) solar Conditions
-17.8 °C -17.8 °C 0 hPa Calm     Humidity % 0 mm SolarRadiationWatts/m^2 W/m2 Conditions
00:04 -3.9 °C -9.2 °C 34395 hPa Calm     56 % 0 mm 0.0 W/m2 CLR
00:09 -3.9 °C -9.3 °C 34395 hPa Calm     55 % 0 mm 0.0 W/m2 CLR
00:14 -3.9 °C -9.3 °C 34395 hPa Calm     55 % 0 mm 0.0 W/m2 CLR
00:19 -4.1 °C -9.4 °C 34395 hPa Calm     55 % 0 mm 0.0 W/m2 CLR
00:24 -4.3 °C -9.3 °C 34405.1 hPa Calm     57 % 0 mm 0.0 W/m2 CLR
00:29 -4.3 °C -9.3 °C 34405.1 hPa Calm     57 % 0 mm 0.0 W/m2 CLR
00:34 -4.3 °C -9.2 °C 34405.1 hPa Calm     58 % 0 mm 0.0 W/m2 CLR
00:39 -4.4 °C -9.3 °C 34405.1 hPa Calm     58 % 0 mm 0.0 W/m2 CLR
00:44 -4.5 °C -9.2 °C 34405.1 hPa Calm     59 % 0 mm 0.0 W/m2 CLR
00:49 -4.5 °C -9.2 °C 34395 hPa Calm     59 % 0 mm 0.0 W/m2 CLR
00:54 -4.5 °C -9.5 °C 34395 hPa Calm     57 % 0 mm 0.0 W/m2 CLR
00:59 -4.4 °C -9.4 °C 34395 hPa Calm     57 % 0 mm 0.0 W/m2 CLR
01:04 -4.3 °C -9.4 °C 34395 hPa Calm     57 % 0 mm 0.0 W/m2 CLR
01:09 -4.3 °C -9.2 °C 34395 hPa Calm     58 % 0 mm 0.0 W/m2 CLR
01:14 -4.3 °C -9.3 °C 34395 hPa Calm     57 % 0 mm 0.0 W/m2 CLR
01:19 -4.3 °C -9.2 °C 34395 hPa Calm     58 % 0 mm 0.0 W/m2 CLR
01:24 -4.3 °C -9.2 °C 34395 hPa Calm     58 % 0 mm 0.0 W/m2 CLR
01:29 -4.4 °C -9.1 °C 34395 hPa Calm     59 % 0 mm 0.0 W/m2 CLR
01:34 -4.4 °C -9.2 °C 34395 hPa Calm     59 % 0 mm 0.0 W/m2 CLR
01:39 -4.5 °C -9.1 °C 34384.8 hPa Calm     60 % 0 mm 0.0 W/m2 CLR
01:44 -4.5 °C -9.1 °C 34384.8 hPa Calm     60 % 0 mm 0.0 W/m2 CLR
01:49 -4.6 °C -9.3 °C 34384.8 hPa Calm     59 % 0 mm 0.0 W/m2 CLR
01:54 -4.6 °C -9.3 °C 34384.8 hPa Calm     59 % 0 mm 0.0 W/m2 CLR
01:59 -4.7 °C -9.2 °C 34371.3 hPa Calm     60 % 0 mm 0.0 W/m2 CLR
02:04 -4.7 °C -9.3 °C 34384.8 hPa Calm     60 % 0 mm 0.0 W/m2 CLR
02:09 -4.8 °C -9.2 °C 34384.8 hPa Calm     61 % 0 mm 0.0 W/m2 CLR
02:14 -4.9 °C -9.3 °C 34384.8 hPa Calm     61 % 0 mm 0.0 W/m2 CLR
02:19 -4.9 °C -9.3 °C 34384.8 hPa Calm     61 % 0 mm 0.0 W/m2 CLR
02:24 -5 °C -9.4 °C 34384.8 hPa Calm     61 % 0 mm 0.0 W/m2 CLR
02:29 -5.1 °C -9.4 °C 34384.8 hPa Calm     61 % 0 mm 0.0 W/m2 CLR
02:34 -5.1 °C -9.5 °C 34384.8 hPa Calm     61 % 0 mm 0.0 W/m2 CLR
02:39 -5.1 °C -9.4 °C 34384.8 hPa Calm     62 % 0 mm 0.0 W/m2 CLR
02:45 -5.2 °C -9.6 °C 34371.3 hPa Calm     61 % 0 mm 0.0 W/m2 CLR
02:50 -5.2 °C -9.6 °C 34371.3 hPa Calm     61 % 0 mm 0.0 W/m2 CLR
02:55 -5.3 °C -9.6 °C 34371.3 hPa Calm     62 % 0 mm 0.0 W/m2 CLR
03:00 -5.4 °C -9.6 °C 34371.3 hPa Calm     63 % 0 mm 0.0 W/m2 CLR
03:05 -5.5 °C -9.5 °C 34371.3 hPa Calm     64 % 0 mm 0.0 W/m2 CLR
03:10 -5.6 °C -9.7 °C 34371.3 hPa Calm     63 % 0 mm 0.0 W/m2 CLR
03:15 -5.6 °C -9.7 °C 34371.3 hPa Calm     63 % 0 mm 0.0 W/m2 CLR
03:20 -5.7 °C -9.7 °C 34371.3 hPa Calm     64 % 0 mm 0.0 W/m2 CLR
03:25 -5.8 °C -9.8 °C 34371.3 hPa Calm     64 % 0 mm 0.0 W/m2 CLR
03:30 -5.8 °C -9.6 °C 34371.3 hPa Calm     65 % 0 mm 0.0 W/m2 CLR
03:35 -5.9 °C -9.8 °C 34371.3 hPa Calm     64 % 0 mm 0.0 W/m2 CLR
03:40 -5.9 °C -9.7 °C 34361.1 hPa Calm     65 % 0 mm 0.0 W/m2 CLR
03:45 -6.1 °C -9.8 °C 34361.1 hPa Calm     66 % 0 mm 0.0 W/m2 CLR
03:50 -6.2 °C -9.8 °C 34361.1 hPa Calm     66 % 0 mm 0.0 W/m2 CLR
03:55 -6.2 °C -9.8 °C 34361.1 hPa Calm     66 % 0 mm 0.0 W/m2 CLR
04:00 -6.2 °C -9.8 °C 34361.1 hPa Calm     66 % 0 mm 0.0 W/m2 CLR
04:05 -6.2 °C -9.9 °C 34347.6 hPa Calm     66 % 0 mm 0.0 W/m2 CLR
04:10 -6.2 °C -9.9 °C 34347.6 hPa Calm     66 % 0 mm 0.0 W/m2 CLR
04:15 -6.3 °C -9.9 °C 34361.1 hPa Calm     67 % 0 mm 0.0 W/m2 CLR
04:20 -6.3 °C -9.8 °C 34361.1 hPa Calm     67 % 0 mm 0.0 W/m2 CLR
04:25 -6.3 °C -9.7 °C 34361.1 hPa Calm     68 % 0 mm 0.0 W/m2 CLR
04:30 -6.3 °C -9.9 °C 34361.1 hPa Calm     67 % 0 mm 0.0 W/m2 CLR
04:35 -6.4 °C -10.1 °C 34361.1 hPa Calm     66 % 0 mm 0.0 W/m2 CLR
04:36 -6.4 °C -10.1 °C 34361.1 hPa Calm     66 % 0 mm 0.0 W/m2 CLR
04:41 -6.4 °C -10.1 °C 34361.1 hPa Calm     66 % 0 mm 0.0 W/m2 CLR
04:46 -6.5 °C -10.1 °C 34361.1 hPa Calm     66 % 0 mm 0.0 W/m2 CLR
04:51 -6.6 °C -10.2 °C 34361.1 hPa Calm     66 % 0 mm 0.0 W/m2 CLR
04:56 -6.6 °C -10.3 °C 34361.1 hPa Calm     66 % 0 mm 0.0 W/m2 CLR
05:01 -6.7 °C -10.3 °C 34361.1 hPa Calm     66 % 0 mm 0.0 W/m2 CLR
05:06 -6.7 °C -10.2 °C 34361.1 hPa Calm     67 % 0 mm 0.0 W/m2 CLR
05:11 -6.7 °C -10.4 °C 34361.1 hPa Calm     66 % 0 mm 0.0 W/m2 CLR
05:16 -6.8 °C -10.4 °C 34361.1 hPa Calm     66 % 0 mm 0.0 W/m2 CLR
05:21 -6.8 °C -10.4 °C 34361.1 hPa Calm     66 % 0 mm 0.0 W/m2 CLR
05:26 -6.8 °C -10.5 °C 34371.3 hPa Calm     66 % 0 mm 0.0 W/m2 CLR
05:31 -6.9 °C -10.4 °C 34371.3 hPa Calm     67 % 0 mm 0.0 W/m2 CLR
05:36 -6.9 °C -10.5 °C 34371.3 hPa Calm     66 % 0 mm 0.0 W/m2 CLR
05:41 -6.9 °C -10.6 °C 34371.3 hPa Calm     66 % 0 mm 0.0 W/m2 CLR
05:46 -6.9 °C -10.5 °C 34371.3 hPa Calm     66 % 0 mm 0.0 W/m2 CLR
05:51 -6.9 °C -10.6 °C 34371.3 hPa Calm     66 % 0 mm 0.0 W/m2 CLR
05:56 -7 °C -10.5 °C 34371.3 hPa Calm     67 % 0 mm 0.0 W/m2 CLR
06:01 -7.1 °C -10.5 °C 34371.3 hPa Calm     67 % 0 mm 0.0 W/m2 CLR
06:06 -7.1 °C -10.6 °C 34371.3 hPa Calm     67 % 0 mm 0.0 W/m2 CLR
06:08 -7.1 °C -10.6 °C 34371.3 hPa Calm     67 % 0 mm 0.0 W/m2 CLR
06:13 -7.1 °C -10.6 °C 34371.3 hPa Calm     67 % 0 mm 0.0 W/m2 CLR
06:18 -7.2 °C -10.5 °C 34371.3 hPa Calm     68 % 0 mm 0.0 W/m2 OVC
06:23 -7.2 °C -10.6 °C 34371.3 hPa Calm     68 % 0 mm 0.0 W/m2 OVC
06:28 -7.2 °C -10.7 °C 34371.3 hPa Calm     67 % 0 mm 5.0 W/m2 OVC
06:33 -7.2 °C -10.7 °C 34371.3 hPa Calm     67 % 0 mm 7.0 W/m2 BKN
06:38 -7.2 °C -10.6 °C 34371.3 hPa Calm     68 % 0 mm 11.0 W/m2 BKN
06:43 -7.2 °C -10.6 °C 34371.3 hPa Calm     68 % 0 mm 12.0 W/m2 BKN
06:48 -7.3 °C -10.6 °C 34384.8 hPa Calm     68 % 0 mm 16.0 W/m2 BKN
06:53 -7.3 °C -10.6 °C 34384.8 hPa Calm     68 % 0 mm 19.0 W/m2 BKN
06:58 -7.3 °C -10.6 °C 34384.8 hPa Calm     68 % 0 mm 21.0 W/m2 BKN
07:03 -7.2 °C -10.4 °C 34384.8 hPa Calm     69 % 0 mm 26.0 W/m2 BKN
07:08 -7.2 °C -10.6 °C 34384.8 hPa Calm     68 % 0 mm 39.0 W/m2 BKN
07:13 -7.2 °C -10.4 °C 34384.8 hPa Calm     69 % 0 mm 47.0 W/m2 SCT
07:18 -7.1 °C -10.4 °C 34384.8 hPa Calm     68 % 0 mm 56.0 W/m2 SCT
07:23 -6.9 °C -10.3 °C 34384.8 hPa Calm     68 % 0 mm 67.0 W/m2 FEW
07:28 -6.8 °C -10.3 °C 34384.8 hPa Calm     67 % 0 mm 81.0 W/m2 FEW
07:33 -6.6 °C -10.2 °C 34384.8 hPa Calm     67 % 0 mm 93.0 W/m2 FEW
07:38 -6.5 °C -10.3 °C 34384.8 hPa Calm     65 % 0 mm 105.0 W/m2 CLR
07:43 -6.3 °C -10.2 °C 34384.8 hPa Calm     65 % 0 mm 120.0 W/m2 CLR
07:48 -6.2 °C -10.1 °C 34384.8 hPa Calm     64 % 0 mm 141.0 W/m2 CLR
07:53 -5.9 °C -10 °C 34384.8 hPa Calm     63 % 0 mm 156.0 W/m2 CLR
07:58 -5.7 °C -9.8 °C 34384.8 hPa Calm     63 % 0 mm 172.0 W/m2 CLR
08:03 -5.4 °C -9.9 °C 34384.8 hPa Calm     60 % 0 mm 190.0 W/m2 CLR
08:08 -5.2 °C -9.6 °C 34384.8 hPa Calm     61 % 0 mm 204.0 W/m2 CLR
08:13 -4.9 °C -9.4 °C 34384.8 hPa Calm     60 % 0 mm 220.0 W/m2 CLR
08:18 -4.6 °C -9.3 °C 34384.8 hPa Calm     59 % 0 mm 236.0 W/m2 CLR
08:23 -4.5 °C -9.3 °C 34384.8 hPa Calm     58 % 0 mm 248.0 W/m2 CLR
08:28 -4.3 °C -9.3 °C 34384.8 hPa Calm     57 % 0 mm 260.0 W/m2 CLR
08:33 -4.3 °C -9.6 °C 34384.8 hPa Calm     55 % 0 mm 276.0 W/m2 CLR
08:38 -4.3 °C -9.6 °C 34384.8 hPa Calm     55 % 0 mm 292.0 W/m2 CLR
08:43 -4.2 °C -9.5 °C 34384.8 hPa Calm     55 % 0 mm 309.0 W/m2 CLR
08:48 -4 °C -9.5 °C 34384.8 hPa Calm     54 % 0 mm 330.0 W/m2 CLR
08:53 -3.8 °C -9.5 °C 34384.8 hPa Calm     53 % 0 mm 362.0 W/m2 CLR
08:58 -3.6 °C -9.5 °C 34384.8 hPa Calm     52 % 0 mm 378.0 W/m2 CLR
09:03 -3.4 °C -9.3 °C 34384.8 hPa Calm     52 % 0 mm 392.0 W/m2 CLR
09:08 -3.2 °C -9.2 °C 34384.8 hPa Calm     51 % 0 mm 399.0 W/m2 CLR
09:14 -2.9 °C -9.2 °C 34384.8 hPa Calm     50 % 0 mm 404.0 W/m2 CLR
09:19 -2.9 °C -9.2 °C 34384.8 hPa Calm     50 % 0 mm 411.0 W/m2 CLR
09:24 -2.9 °C -9.2 °C 34384.8 hPa Calm     50 % 0 mm 424.0 W/m2 CLR
09:29 -2.9 °C -9.2 °C 34384.8 hPa Calm     50 % 0 mm 439.0 W/m2 CLR
09:34 -2.8 °C -9.1 °C 34384.8 hPa Calm     50 % 0 mm 452.0 W/m2 CLR
09:39 -2.6 °C -8.9 °C 34384.8 hPa Calm     50 % 0 mm 466.0 W/m2 CLR
09:44 -2.6 °C -8.8 °C 34384.8 hPa Calm     50 % 0 mm 480.0 W/m2 CLR
09:49 -2.5 °C -8.8 °C 34384.8 hPa Calm     50 % 0 mm 492.0 W/m2 CLR
09:54 -2.4 °C -8.8 °C 34384.8 hPa Calm     49 % 0 mm 508.0 W/m2 CLR
09:59 -2.3 °C -8.8 °C 34384.8 hPa Calm     49 % 0 mm 524.0 W/m2 CLR
10:04 -2.1 °C -9 °C 34384.8 hPa NNW 15 km/h 15 km/h 47 % 0 mm 538.0 W/m2 CLR
10:09 -2 °C -9.1 °C 34395 hPa NW 9 km/h   46 % 0 mm 552.0 W/m2 CLR
10:14 -1.9 °C -9.2 °C 34395 hPa Calm     45 % 0 mm 566.0 W/m2 CLR
10:19 -1.9 °C -9 °C 34395 hPa NW 9 km/h 9 km/h 46 % 0 mm 580.0 W/m2 CLR
10:24 -1.8 °C -8.9 °C 34395 hPa Calm     46 % 0 mm 592.0 W/m2 CLR
10:29 -1.8 °C -9.1 °C 34395 hPa WNW 3.1 km/h   45 % 0 mm 605.0 W/m2 CLR
10:34 -1.6 °C -8.9 °C 34395 hPa NW 15 km/h 15 km/h 45 % 0 mm 621.0 W/m2 CLR
10:39 -1.6 °C -8.7 °C 34395 hPa Calm     46 % 0 mm 631.0 W/m2 CLR
10:44 -1.6 °C -9.1 °C 34384.8 hPa NW 20.9 km/h 20.9 km/h 44 % 0 mm 647.0 W/m2 CLR
10:49 -1.6 °C -9.1 °C 34395 hPa NW 12.9 km/h 12.9 km/h 44 % 0 mm 657.0 W/m2 CLR
10:54 -1.5 °C -8.8 °C 34395 hPa NNE 17.9 km/h 17.9 km/h 45 % 0 mm 673.0 W/m2 CLR
10:59 -1.3 °C -8.9 °C 34395 hPa WNW 15 km/h 15 km/h 44 % 0 mm 686.0 W/m2 CLR
11:04 -1.2 °C -8.9 °C 34384.8 hPa NW 15 km/h 15 km/h 43 % 0 mm 694.0 W/m2 CLR
11:09 -1.2 °C -8.9 °C 34395 hPa NNW 20.9 km/h 20.9 km/h 43 % 0 mm 705.0 W/m2 CLR
11:14 -1.2 °C -8.6 °C 34395 hPa North 9 km/h 9 km/h 45 % 0 mm 715.0 W/m2 CLR
11:19 -1.1 °C -8.4 °C 34395 hPa NNE 6 km/h 6 km/h 45 % 0 mm 728.0 W/m2 CLR
11:24 -1 °C -8.6 °C 34395 hPa WNW 3.1 km/h 3.1 km/h 44 % 0 mm 742.0 W/m2 CLR
11:29 -0.9 °C -8.3 °C 34395 hPa Calm     45 % 0 mm 747.0 W/m2 CLR
11:34 -0.8 °C -8.8 °C 34395 hPa NNW 26.9 km/h 26.9 km/h 42 % 0 mm 759.0 W/m2 CLR
11:39 -0.8 °C -8.8 °C 34395 hPa NNE 15 km/h 15 km/h 42 % 0 mm 772.0 W/m2 CLR
11:44 -0.7 °C -8.5 °C 34395 hPa WNW 17.9 km/h 17.9 km/h 43 % 0 mm 782.0 W/m2 CLR
11:49 -0.8 °C -8.8 °C 34395 hPa Calm     42 % 0 mm 788.0 W/m2 CLR
11:54 -0.6 °C -8.6 °C 34395 hPa Calm     42 % 0 mm 796.0 W/m2 CLR
11:59 -0.5 °C -8.5 °C 34395 hPa West 11.9 km/h 11.9 km/h 42 % 0 mm 807.0 W/m2 CLR
12:04 -0.5 °C -8.3 °C 34395 hPa North 9 km/h 9 km/h 43 % 0 mm 816.0 W/m2 CLR
12:09 -0.4 °C -8.2 °C 34395 hPa Calm     43 % 0 mm 824.0 W/m2 CLR
12:14 -0.2 °C -8.4 °C 34395 hPa NNE 3.1 km/h 3.1 km/h 41 % 0 mm 835.0 W/m2 CLR
12:16 -0.2 °C -8.4 °C 34395 hPa Calm     41 % 0 mm 837.0 W/m2 CLR
12:21 -0.1 °C -8.4 °C 34395 hPa NNE 15 km/h 15 km/h 41 % 0 mm 846.0 W/m2 CLR
12:26 -0.2 °C -8.8 °C 34384.8 hPa North 17.9 km/h 17.9 km/h 39 % 0 mm 856.0 W/m2 CLR
12:31 -0.3 °C -8.6 °C 34384.8 hPa NNW 3.1 km/h   41 % 0 mm 860.0 W/m2 CLR
12:36 -0.1 °C -8.4 °C 34384.8 hPa ENE 12.9 km/h 12.9 km/h 41 % 0 mm 865.0 W/m2 CLR
12:37 -0.1 °C -8.6 °C 34384.8 hPa East 11.9 km/h 11.9 km/h 40 % 0 mm 865.0 W/m2 CLR
12:42 -0.2 °C -8.7 °C 34384.8 hPa SE 9 km/h 9 km/h 40 % 0 mm 872.0 W/m2 CLR
12:47 -0.2 °C -8.7 °C 34384.8 hPa ENE 6 km/h 6 km/h 40 % 0 mm 881.0 W/m2 CLR
12:52 0 °C -8.7 °C 34384.8 hPa East 11.9 km/h 11.9 km/h 39 % 0 mm 888.0 W/m2 CLR
12:57 0.2 °C -8.6 °C 34384.8 hPa NE 15 km/h 15 km/h 39 % 0 mm 893.0 W/m2 CLR
13:02 0.3 °C -8.7 °C 34384.8 hPa Calm   0.3 km/h 38 % 0 mm 895.0 W/m2 CLR
13:07 0.4 °C -8.8 °C 34384.8 hPa East 10.3 km/h 10.3 km/h 37 % 0 mm 900.0 W/m2 CLR
13:12 0.5 °C -8.9 °C 34371.3 hPa NNE 12.9 km/h 12.9 km/h 36 % 0 mm 905.0 W/m2 CLR
13:17 0.6 °C -9.1 °C 34371.3 hPa ENE 6 km/h 6 km/h 35 % 0 mm 911.0 W/m2 CLR
13:22 0.7 °C -9.3 °C 34371.3 hPa Calm     34 % 0 mm 911.0 W/m2 CLR
13:27 0.7 °C -9.3 °C 34371.3 hPa ESE 17.9 km/h 17.9 km/h 34 % 0 mm 916.0 W/m2 CLR
13:32 0.8 °C -9.2 °C 34371.3 hPa ENE 3.1 km/h 3.1 km/h 34 % 0 mm 918.0 W/m2 CLR
13:37 0.7 °C -9.5 °C 34371.3 hPa Calm   0.3 km/h 33 % 0 mm 921.0 W/m2 CLR
13:38 0.7 °C -9.3 °C 34371.3 hPa North 3.1 km/h   34 % 0 mm 921.0 W/m2 CLR
13:43 0.9 °C -9.3 °C 34361.1 hPa ESE 6 km/h 6 km/h 33 % 0 mm 921.0 W/m2 CLR
13:48 0.7 °C -9.5 °C 34361.1 hPa South 9 km/h   33 % 0 mm 925.0 W/m2 CLR
13:53 0.8 °C -9.2 °C 34361.1 hPa ESE 15.6 km/h 15.6 km/h 34 % 0 mm 926.0 W/m2 CLR
13:58 0.9 °C -9.1 °C 34347.6 hPa NE 18.2 km/h 18.2 km/h 34 % 0 mm 925.0 W/m2 CLR
14:03 1.1 °C -9.4 °C 34347.6 hPa NNE 11.9 km/h 11.9 km/h 32 % 0 mm 926.0 W/m2 CLR
14:08 1.2 °C -9.4 °C 34347.6 hPa Calm     32 % 0 mm 928.0 W/m2 CLR
14:13 1.3 °C -9.3 °C 34337.4 hPa Calm     32 % 0 mm 928.0 W/m2 CLR
14:18 1.4 °C -9.2 °C 34337.4 hPa Calm     32 % 0 mm 928.0 W/m2 CLR
14:23 1.7 °C -8.9 °C 34337.4 hPa Calm     32 % 0 mm 926.0 W/m2 CLR
14:29 2 °C -9.2 °C 34337.4 hPa NNE 9 km/h   30 % 0 mm 925.0 W/m2 CLR
14:34 1.9 °C -9.3 °C 34327.3 hPa NNE 11.9 km/h 11.9 km/h 30 % 0 mm 925.0 W/m2 CLR
14:39 2.1 °C -9.2 °C 34327.3 hPa ENE 26.9 km/h 26.9 km/h 30 % 0 mm 921.0 W/m2 CLR
14:49 1.8 °C -9.7 °C 34327.3 hPa NNW 11.9 km/h 11.9 km/h 29 % 0 mm 914.0 W/m2 CLR
14:54 1.7 °C -9.5 °C 34327.3 hPa ESE 2.6 km/h   30 % 0 mm 905.0 W/m2 CLR
14:59 1.9 °C -9.3 °C 34313.7 hPa ENE 5.1 km/h 8 km/h 30 % 0 mm 904.0 W/m2 CLR
15:04 1.8 °C -9.7 °C 34313.7 hPa NNW 17.9 km/h 17.9 km/h 29 % 0 mm 900.0 W/m2 CLR
15:09 1.7 °C -9.6 °C 34313.7 hPa WNW 23.8 km/h 23.8 km/h 30 % 0 mm 900.0 W/m2 CLR
15:14 1.6 °C -9.6 °C 34303.6 hPa East 7.7 km/h 7.7 km/h 30 % 0 mm 891.0 W/m2 CLR
15:19 1.8 °C -9.4 °C 34303.6 hPa ENE 20.9 km/h 20.9 km/h 30 % 0 mm 882.0 W/m2 CLR
15:24 1.9 °C -9.6 °C 34303.6 hPa NE 17.9 km/h 17.9 km/h 29 % 0 mm 879.0 W/m2 CLR
15:29 2 °C -9.8 °C 34303.6 hPa West 2.6 km/h 2.6 km/h 28 % 0 mm 870.0 W/m2 CLR
15:34 2.1 °C -9.5 °C 34303.6 hPa NW 18.2 km/h 18.2 km/h 29 % 0 mm 868.0 W/m2 CLR
15:39 1.9 °C -9.6 °C 34303.6 hPa Calm     29 % 0 mm 870.0 W/m2 CLR
15:44 2.1 °C -9.5 °C 34293.4 hPa NE 18.2 km/h 18.2 km/h 29 % 0 mm 861.0 W/m2 CLR
15:49 2.2 °C -10 °C 34293.4 hPa North 26.9 km/h 26.9 km/h 27 % 0 mm 846.0 W/m2 CLR
15:54 2.2 °C -10.1 °C 34293.4 hPa East 29.8 km/h 29.8 km/h 27 % 0 mm 846.0 W/m2 CLR
15:59 2.2 °C -10.3 °C 34293.4 hPa SE 29.8 km/h 29.8 km/h 26 % 0 mm 837.0 W/m2 CLR
16:04 2 °C -10.4 °C 34293.4 hPa SE 23.8 km/h 23.8 km/h 26 % 0 mm 838.0 W/m2 CLR
16:09 2 °C -10.4 °C 34293.4 hPa SSE 15 km/h 15 km/h 26 % 0 mm 821.0 W/m2 CLR
16:14 2 °C -10.5 °C 34293.4 hPa Calm     26 % 0 mm 803.0 W/m2 CLR
16:19 2.1 °C -10.4 °C 34293.4 hPa NNE 15 km/h 15 km/h 26 % 0 mm 816.0 W/m2 CLR
16:24 2.3 °C -10.6 °C 34293.4 hPa NNW 26.9 km/h 26.9 km/h 25 % 0 mm 809.0 W/m2 CLR
16:29 2.1 °C -10.7 °C 34293.4 hPa North 7.7 km/h 7.7 km/h 25 % 0 mm 134.0 W/m2 CLR
16:34 2 °C -10.4 °C 34293.4 hPa North 9 km/h 9 km/h 26 % 0 mm 788.0 W/m2 CLR
16:39 2.2 °C -10.3 °C 34293.4 hPa NW 3.1 km/h   26 % 0 mm 775.0 W/m2 CLR
16:44 2.4 °C -10.4 °C 34293.4 hPa NNE 6 km/h 6 km/h 25 % 0 mm 765.0 W/m2 CLR
16:49 2.6 °C -10.1 °C 34293.4 hPa ESE 11.9 km/h 11.9 km/h 26 % 0 mm 752.0 W/m2 CLR
16:54 2.3 °C -10.2 °C 34279.9 hPa SE 15.6 km/h 15.6 km/h 26 % 0 mm 751.0 W/m2 CLR
16:55 2.3 °C -10.2 °C 34279.9 hPa SE 15 km/h 15 km/h 26 % 0 mm 745.0 W/m2 CLR
17:00 2.3 °C -9.9 °C 34279.9 hPa ESE 18.2 km/h 18.2 km/h 27 % 0 mm 731.0 W/m2 CLR
17:05 2.2 °C -10.9 °C 34279.9 hPa ESE 20.9 km/h 20.9 km/h 24 % 0 mm 737.0 W/m2 CLR
17:10 2.3 °C -10.6 °C 34279.9 hPa ESE 20.9 km/h 20.9 km/h 25 % 0 mm 735.0 W/m2 CLR
17:11 2.3 °C -10.9 °C 34279.9 hPa SSW 15 km/h 15 km/h 24 % 0 mm 738.0 W/m2 CLR
17:16 2.5 °C -10.7 °C 34279.9 hPa Calm     24 % 0 mm 717.0 W/m2 CLR
17:21 2.4 °C -9.2 °C 34279.9 hPa ESE 20.9 km/h 20.9 km/h 29 % 0 mm 717.0 W/m2 CLR
17:26 2.2 °C -9.1 °C 34279.9 hPa ESE 23.8 km/h 23.8 km/h 30 % 0 mm 664.0 W/m2 CLR
17:31 2.1 °C -9.2 °C 34279.9 hPa ESE 41.7 km/h 41.7 km/h 30 % 0 mm 654.0 W/m2 CLR
17:36 1.9 °C -9.3 °C 34279.9 hPa ENE 29.8 km/h 29.8 km/h 30 % 0 mm 628.0 W/m2 CLR
17:41 1.9 °C -9.1 °C 34293.4 hPa SE 23.3 km/h 24.1 km/h 31 % 0 mm 621.0 W/m2 CLR
17:46 1.7 °C -9.3 °C 34279.9 hPa ESE 32.8 km/h 32.8 km/h 31 % 0 mm 98.0 W/m2 CLR
17:51 1.5 °C -9.4 °C 34279.9 hPa ESE 38.8 km/h 38.8 km/h 31 % 0 mm 577.0 W/m2 CLR
17:56 1.6 °C -9.3 °C 34279.9 hPa East 12.9 km/h 12.9 km/h 31 % 0 mm 561.0 W/m2 CLR
18:01 1.8 °C -9.1 °C 34279.9 hPa East 25.9 km/h 25.9 km/h 31 % 0 mm 555.0 W/m2 CLR
18:06 1.8 °C -9.4 °C 34279.9 hPa ESE 35.7 km/h 35.7 km/h 30 % 0 mm 547.0 W/m2 CLR
18:11 1.8 °C -9.4 °C 34279.9 hPa SE 29.8 km/h 29.8 km/h 30 % 0 mm 522.0 W/m2 CLR
18:16 1.8 °C -9.4 °C 34279.9 hPa SE 32.8 km/h 32.8 km/h 30 % 0 mm 510.0 W/m2 CLR
18:21 1.8 °C -9.4 °C 34279.9 hPa East 44.7 km/h 44.7 km/h 30 % 0 mm 501.0 W/m2 CLR
18:26 1.8 °C -9.4 °C 34279.9 hPa East 29.8 km/h 29.8 km/h 30 % 0 mm 485.0 W/m2 CLR
18:31 1.8 °C -9.4 °C 34293.4 hPa ESE 29.8 km/h 29.8 km/h 30 % 0 mm 473.0 W/m2 CLR
18:36 1.8 °C -9.4 °C 34293.4 hPa SE 29.8 km/h 29.8 km/h 30 % 0 mm 462.0 W/m2 CLR
18:41 1.8 °C -9.4 °C 34293.4 hPa SE 29.8 km/h 29.8 km/h 30 % 0 mm 431.0 W/m2 CLR
18:46 1.7 °C -9.5 °C 34293.4 hPa SSE 23.8 km/h 23.8 km/h 30 % 0 mm 417.0 W/m2 CLR
18:51 1.8 °C -9.4 °C 34293.4 hPa South 17.9 km/h 17.9 km/h 30 % 0 mm 408.0 W/m2 CLR
18:56 1.7 °C -9.8 °C 34303.6 hPa SSW 26.9 km/h 26.9 km/h 29 % 0 mm 404.0 W/m2 CLR
19:01 1.6 °C -9.8 °C 34303.6 hPa SSE 28.5 km/h 28.5 km/h 29 % 0 mm 373.0 W/m2 CLR
19:02 1.6 °C -9.6 °C 34303.6 hPa South 28.5 km/h 28.5 km/h 30 % 0 mm 373.0 W/m2 CLR
19:07 1.4 °C -10 °C 34293.4 hPa SSW 29.8 km/h 29.8 km/h 29 % 0 mm 353.0 W/m2 CLR
19:12 1.4 °C -10.1 °C 34293.4 hPa SSW 32.8 km/h 32.8 km/h 29 % 0 mm 336.0 W/m2 CLR
19:17 1.4 °C -10.1 °C 34293.4 hPa SSW 26.9 km/h 26.9 km/h 29 % 0 mm 320.0 W/m2 CLR
19:22 1.3 °C -10.1 °C 34293.4 hPa SSE 26.9 km/h 26.9 km/h 29 % 0 mm 308.0 W/m2 CLR
19:27 1.3 °C -10.1 °C 34293.4 hPa South 35.7 km/h 35.7 km/h 29 % 0 mm 294.0 W/m2 CLR
19:32 1.2 °C -9.9 °C 34293.4 hPa South 26.9 km/h 26.9 km/h 30 % 0 mm 274.0 W/m2 CLR
19:37 1.2 °C -10.2 °C 34293.4 hPa South 29.8 km/h 29.8 km/h 29 % 0 mm 260.0 W/m2 CLR
19:42 1.2 °C -9.9 °C 34293.4 hPa SSW 38.8 km/h 38.8 km/h 30 % 0 mm 246.0 W/m2 CLR
19:47 1.2 °C -9.7 °C 34293.4 hPa South 18.2 km/h 18.2 km/h 31 % 0 mm 230.0 W/m2 CLR
19:52 1.1 °C -9.7 °C 34293.4 hPa SSW 29.8 km/h 29.8 km/h 31 % 0 mm 213.0 W/m2 CLR
19:57 1.1 °C -9.7 °C 34303.6 hPa South 17.9 km/h 17.9 km/h 31 % 0 mm 197.0 W/m2 CLR
20:02 1.1 °C -9.8 °C 34303.6 hPa South 20.9 km/h 20.9 km/h 31 % 0 mm 181.0 W/m2 CLR
20:07 1 °C -9.3 °C 34303.6 hPa South 20.9 km/h 20.9 km/h 33 % 0 mm 163.0 W/m2 CLR
20:12 0.9 °C -9.6 °C 34303.6 hPa South 15 km/h 15 km/h 32 % 0 mm 144.0 W/m2 CLR
20:17 0.9 °C -9.6 °C 34303.6 hPa South 15 km/h 15 km/h 32 % 0 mm 128.0 W/m2 CLR
20:22 0.9 °C -9.4 °C 34303.6 hPa SE 15 km/h 15 km/h 33 % 0 mm 114.0 W/m2 CLR
20:27 0.8 °C -9.2 °C 34303.6 hPa Calm     34 % 0 mm 100.0 W/m2 CLR
20:32 0.7 °C -9.3 °C 34303.6 hPa South 23.8 km/h 23.8 km/h 34 % 0 mm 88.0 W/m2 CLR
20:37 0.7 °C -9.6 °C 34303.6 hPa Calm     33 % 0 mm 74.0 W/m2 FEW
20:42 0.7 °C -9.8 °C 34303.6 hPa SW 3.1 km/h   32 % 0 mm 63.0 W/m2 SCT
20:47 0.6 °C -10.2 °C 34303.6 hPa SSW 20.9 km/h 20.9 km/h 31 % 0 mm 33.0 W/m2 BKN
20:52 0.5 °C -10.3 °C 34303.6 hPa South 20.9 km/h 20.9 km/h 31 % 0 mm 40.0 W/m2 BKN
20:57 0.4 °C -10.3 °C 34303.6 hPa Calm     31 % 0 mm 32.0 W/m2 BKN
21:02 0.4 °C -10.3 °C 34303.6 hPa Calm     31 % 0 mm 23.0 W/m2 BKN
21:07 0.3 °C -10.1 °C 34303.6 hPa Calm     32 % 0 mm 18.0 W/m2 BKN
21:12 0.3 °C -9.9 °C 34303.6 hPa Calm     33 % 0 mm 14.0 W/m2 BKN
21:17 0.2 °C -10 °C 34303.6 hPa Calm     33 % 0 mm 12.0 W/m2 BKN
21:22 0.1 °C -10.1 °C 34303.6 hPa Calm     33 % 0 mm 11.0 W/m2 BKN
21:27 -0.1 °C -9.9 °C 34313.7 hPa Calm     34 % 0 mm 9.0 W/m2 BKN
21:32 -0.1 °C -10 °C 34313.7 hPa Calm     34 % 0 mm 5.0 W/m2 OVC
21:37 -0.2 °C -9.9 °C 34313.7 hPa Calm     35 % 0 mm 0.0 W/m2 OVC
21:42 -0.3 °C -9.9 °C 34313.7 hPa Calm     35 % 0 mm 0.0 W/m2 OVC
21:47 -0.5 °C -9.4 °C 34313.7 hPa Calm     38 % 0 mm 0.0 W/m2 CLR
21:52 -0.7 °C -9.1 °C 34313.7 hPa ESE 15 km/h 15 km/h 40 % 0 mm 0.0 W/m2 CLR
21:57 -0.9 °C -8.8 °C 34327.3 hPa ESE 18.2 km/h 18.2 km/h 42 % 0 mm 0.0 W/m2 CLR
22:02 -1.1 °C -9 °C 34327.3 hPa Calm     42 % 0 mm 0.0 W/m2 CLR
22:07 -1.2 °C -8.9 °C 34327.3 hPa Calm     43 % 0 mm 0.0 W/m2 CLR
22:12 -1.3 °C -8.9 °C 34327.3 hPa ESE 9 km/h   44 % 0 mm 0.0 W/m2 CLR
22:17 -1.6 °C -8.8 °C 34337.4 hPa SE 15 km/h 15 km/h 45 % 0 mm 0.0 W/m2 CLR
22:22 -1.7 °C -8.8 °C 34337.4 hPa SE 11.9 km/h 11.9 km/h 46 % 0 mm 0.0 W/m2 CLR
22:27 -1.9 °C -9 °C 34337.4 hPa SE 23.8 km/h 23.8 km/h 46 % 0 mm 0.0 W/m2 CLR
22:32 -1.9 °C -9 °C 34337.4 hPa Calm     46 % 0 mm 0.0 W/m2 CLR
22:37 -2 °C -9.1 °C 34337.4 hPa Calm     46 % 0 mm 0.0 W/m2 CLR
22:38 -2 °C -9.1 °C 34337.4 hPa Calm     46 % 0 mm 0.0 W/m2 CLR
22:43 -1.9 °C -9.2 °C 34337.4 hPa Calm     45 % 0 mm 0.0 W/m2 CLR
22:48 -1.9 °C -9.2 °C 34347.6 hPa Calm     45 % 0 mm 0.0 W/m2 CLR
22:53 -2 °C -9.3 °C 34347.6 hPa SE 12.9 km/h 12.9 km/h 45 % 0 mm 0.0 W/m2 CLR
22:58 -2 °C -9.3 °C 34347.6 hPa Calm     45 % 0 mm 0.0 W/m2 CLR
23:03 -2.2 °C -9.2 °C 34347.6 hPa Calm     46 % 0 mm 0.0 W/m2 CLR
23:08 -2.4 °C -9.4 °C 34347.6 hPa Calm     46 % 0 mm 0.0 W/m2 CLR
23:13 -2.4 °C -9.5 °C 34347.6 hPa Calm     46 % 0 mm 0.0 W/m2 CLR
23:18 -2.4 °C -9.5 °C 34361.1 hPa Calm     46 % 0 mm 0.0 W/m2 CLR
23:23 -2.5 °C -9.6 °C 34361.1 hPa Calm     46 % 0 mm 0.0 W/m2 CLR
23:28 -2.6 °C -9.6 °C 34347.6 hPa Calm     46 % 0 mm 0.0 W/m2 CLR
23:33 -2.7 °C -9.7 °C 34347.6 hPa Calm     46 % 0 mm 0.0 W/m2 CLR
23:38 -2.8 °C -9.8 °C 34347.6 hPa Calm     46 % 0 mm 0.0 W/m2 CLR
23:43 -2.9 °C -9.9 °C 34347.6 hPa Calm     46 % 0 mm 0.0 W/m2 CLR
23:48 -2.9 °C -9.9 °C 34347.6 hPa Calm     46 % 0 mm 0.0 W/m2 CLR
23:53 -2.9 °C -9.9 °C 34361.1 hPa Calm     46 % 0 mm 0.0 W/m2 CLR
23:58 -2.9 °C -9.6 °C 34361.1 hPa Calm     48 % 0 mm 0.0 W/m2 CLR
Lo Temps de Massalio
Compliments of Weather Underground - 1.25 mb